Location: Fiumara Carapello
(41.5667°N, 14.8333°E)
Time: 02:47:24
(UTC+00:00)

Daily predictions for brighter satellites

Satellite Brightness Start Highest point End
(mag) Time Altitude Azimuth Time Altitude Azimuth Time Altitude Azimuth
Cosmos 1862 3.8 00:07:57 50° NNW 00:07:57 50° NNW 00:10:50 10° N
Cosmos 494 Rocket 4.3 00:02:36 10° NNW 00:07:48 62° ENE 00:09:17 43° SE
Cosmos 2297 Rocket 2.5 00:06:47 10° NNW 00:12:25 62° ENE 00:15:01 31° SE
Cosmos 1782 4.0 00:09:34 10° NNW 00:11:51 30° NW 00:11:51 30° NW
Cosmos 1726 Rocket 3.5 00:11:21 10° N 00:15:52 76° W 00:15:54 76° W
CZ-2D R/B 4.2 00:14:00 10° NE 00:17:24 17° E 00:19:52 13° ESE
Cosmos 2058 4.3 00:18:00 26° WNW 00:18:00 26° WNW 00:20:58 10° NNW
Cosmos 2112 Rocket 3.9 00:12:28 10° NNW 00:17:43 75° WSW 00:18:23 65° SSW
Cosmos 1892 Rocket 3.4 00:18:39 75° WNW 00:18:39 75° WNW 00:22:56 10° N
BREEZE M DEB (TANK) 4.0 00:00:13 10° SW 00:19:23 82° SSE 00:24:00 10° ENE
Cosmos 1980 Rocket 3.7 00:23:29 21° SE 00:25:18 25° ESE 00:29:47 10° NE
Spot 2 3.8 00:29:12 79° SE 00:29:25 84° ENE 00:33:30 10° NNW
Resurs 1-4 Rocket 3.7 00:27:39 10° NE 00:32:04 26° E 00:34:32 19° SE
Cosmos 1680 Rocket 3.9 00:28:05 10° NNW 00:33:05 44° WSW 00:33:13 44° WSW
H-2A R/B 3.1 00:34:14 39° WNW 00:34:14 39° WNW 00:37:01 10° NNW
Cosmos 1697 Rocket 2.7 00:32:50 49° S 00:34:16 69° ESE 00:39:54 10° NNE
SeaSat 1 3.0 00:31:58 22° SE 00:34:59 57° ENE 00:39:48 10° NNW
RESURS DK-1 2.2 00:31:01 10° NNW 00:34:58 86° NNE 00:34:58 86° NNE
Cosmos 1656 4.4 00:33:45 33° WSW 00:35:30 42° WNW 00:40:48 10° N
Cosmos 1626 Rocket 4.0 00:35:07 45° SE 00:35:50 50° E 00:40:03 10° NNE
Tiangong 0.5 00:38:11 15° E 00:38:11 15° E 00:38:57 10° E
Cosmos 2227 Rocket 3.0 00:38:22 10° NNW 00:43:54 50° ENE 00:49:23 10° SE
FENGYUN 3A 4.3 00:39:07 10° NNE 00:44:19 48° E 00:46:28 32° SSE
MSX 3.8 00:40:32 10° NNE 00:46:17 78° ESE 00:48:21 42° S
Cosmos 1356 Rocket 3.4 00:43:43 10° NNW 00:47:29 58° W 00:47:29 58° W
Cosmos-2242 2.8 00:48:16 10° N 00:52:29 86° WSW 00:53:05 64° S
ISS -1.0 00:53:27 10° NW 00:56:07 21° NNE 00:58:45 10° ENE
H-2A R/B 2.4 00:53:00 10° NNE 00:57:07 54° ESE 00:58:12 41° SSE
Cosmos 1441 Rocket 4.0 00:58:03 34° WNW 00:58:03 34° WNW 01:01:00 10° N
USA 32 4.0 00:59:07 39° S 01:01:06 82° E 01:06:21 10° N
NPP 3.6 00:58:42 10° NNE 01:04:07 82° WNW 01:06:09 40° SSW
Cosmos 1125 Rocket 3.4 01:06:12 41° SSW 01:08:06 89° WNW 01:13:24 10° NNE
ALOS 3.6 01:04:14 10° NE 01:08:19 31° E 01:10:57 18° SSE
DELTA 2 R/B (1) 3.5 01:07:24 33° WSW 01:09:53 69° S 01:15:27 10° E
COSMOS 2441 4.5 01:05:00 10° NNE 01:09:53 71° ESE 01:11:55 35° S
CZ-2C R/B 3.9 01:11:03 23° W 01:11:33 24° W 01:15:56 10° NW
Cosmos 2221 3.5 01:09:01 10° N 01:13:05 42° ENE 01:16:11 16° SE
Cosmos 2151 3.6 01:15:36 27° SSE 01:17:29 48° E 01:21:30 10° NNE
Cosmos 2369 4.4 01:19:12 23° SSE 01:22:26 46° ESE 01:27:49 10° NE
Cosmos 1048 Rocket 4.3 01:19:48 10° NNW 01:24:56 47° WSW 01:26:52 32° SSW
Cosmos 2058 Rocket 4.2 01:21:22 10° NNW 01:25:04 27° W 01:25:27 26° W
Cosmos 1315 Rocket 4.0 01:22:11 10° NW 01:25:07 25° W 01:25:07 25° W
Molniya-1 3.9 01:24:35 35° SSE 01:25:30 47° ESE 01:30:36 10° NE
IDEFIX/ARIANE 42P 3.3 01:25:17 10° N 01:30:05 39° WNW 01:32:15 27° WSW
USA 234 4.2 01:26:53 10° ENE 01:32:46 35° SE 01:36:53 18° S
Cosmos 1812 Rocket 3.4 01:29:03 10° N 01:33:28 86° WSW 01:35:56 25° S
Lacrosse 5 rocket 4.5 01:35:23 10° NNW 01:37:35 14° NNE 01:39:46 10° ENE
Cosmos 2219 3.7 01:36:44 10° NNW 01:42:25 63° ENE 01:47:59 10° SE
SL-16 R/B 4.0 01:39:38 10° SSE 01:44:05 25° ESE 01:48:35 10° NE
SL-16 R/B 3.7 01:38:17 10° SE 01:44:09 44° ENE 01:50:03 10° N
ADEOS II 2.1 01:41:14 10° NNE 01:46:30 80° ESE 01:50:13 20° S
Cosmos 921 Rocket 4.0 01:43:35 10° N 01:47:54 49° ENE 01:52:08 10° SE
Cosmos 1825 Rocket 3.5 01:45:38 23° S 01:48:15 81° E 01:52:36 10° N
Envisat 3.2 01:44:09 10° NNE 01:49:14 70° ESE 01:53:08 17° S
Cosmos 2263 Rocket 2.2 01:44:01 10° NNW 01:49:42 86° ENE 01:55:18 10° SSE
NOAA 11 4.2 01:44:38 10° NNE 01:50:07 84° ESE 01:54:10 19° SSW
Cosmos 1238 Rocket 3.4 01:48:40 10° N 01:53:58 80° W 01:58:34 13° S
Gbstr 26 Del rocket 4.4 01:47:53 10° NW 01:54:32 80° NNE 02:02:16 10° ESE
Cosmos 2297 Rocket 3.6 01:52:06 10° WNW 01:55:51 18° W 01:56:44 18° WSW
CZ-2D R/B 2.3 01:52:36 10° N 01:57:45 58° WNW 02:01:07 21° SW
DMSP B5D2-2 4.4 01:54:21 10° SSE 01:59:33 70° ENE 02:04:47 10° N
Cosmos 1076 Rocket 3.9 01:57:37 13° S 02:01:21 60° E 02:05:34 10° NNE
BREEZE-M DEB (TANK) 1.5 02:02:22 10° WNW 02:04:32 88° NE 02:07:28 10° ESE
OAO 2 Rocket 4.1 02:02:37 22° SSW 02:04:58 33° SSE 02:09:28 10° ESE
Meteor 1-27 Rocket 4.4 01:59:24 10° N 02:05:17 60° ENE 02:11:07 10° SSE
Cosmos 1980 Rocket 2.7 02:05:14 19° SW 02:08:57 45° WNW 02:14:20 10° NNE
Meteor 1-25 Rocket 4.3 02:06:25 11° S 02:11:43 82° E 02:17:22 10° NNE
Resurs 1-4 Rocket 2.8 02:07:00 10° N 02:11:55 40° WNW 02:15:34 17° SW
SeaSat 1 3.8 02:11:34 18° WSW 02:12:39 19° WSW 02:16:05 10° WNW
Tiangong -2.1 02:10:34 19° W 02:12:49 85° S 02:16:06 10° E
Meteor 1-10 Rocket 4.2 02:09:03 10° NNW 02:14:43 74° W 02:20:29 10° S
Cosmos 1697 Rocket 4.5 02:14:43 10° W 02:18:46 20° NW 02:22:50 10° N
Cosmos 2181 Rocket 4.1 02:13:04 10° N 02:19:17 83° E 02:25:23 10° S
CZ-3 Stage 3 4.4 02:13:45 12° SSW 02:20:26 34° SE 02:43:11 10° E
Cosmos 1842 Rocket 4.2 02:16:10 10° N 02:20:33 58° E 02:24:52 10° SSE
H-2A R/B 2.5 02:16:32 10° NNE 02:21:27 56° E 02:26:14 10° S
Cosmos 1346 Rocket 2.6 02:19:15 17° SSW 02:21:58 63° W 02:25:38 10° N
BlueWalker 3 2.3 02:22:44 10° NW 02:26:22 63° NE 02:29:57 10° ESE
Cosmos 2227 Rocket 3.3 02:23:10 10° NW 02:27:32 23° W 02:31:20 12° SSW
CENTAUR R/B 3.6 02:25:44 10° S 02:30:28 35° ESE 02:36:10 10° NE
AQUA 3.9 02:27:17 10° N 02:31:56 63° WNW 02:36:29 10° SSW
H-2A R/B 4.1 02:29:55 10° NNW 02:32:04 14° WNW 02:34:15 10° W
ISS -3.8 02:29:49 10° NW 02:33:11 88° SW 02:36:33 10° SE
Cosmos 2278 4.1 02:29:17 10° S 02:34:49 65° ESE 02:40:25 10° NNE
ATLAS 2AS CENTAUR R/B 2.6 02:34:09 10° NW 02:40:52 75° WSW 02:47:33 10° SSE
SL-23 DEB 4.0 02:37:57 11° WSW 02:40:52 50° NNW 02:44:34 10° NE
USA 290 3.1 02:38:03 10° NW 02:41:00 31° WSW 02:43:56 10° SSW
ACS3 Solar Sail 4.4 02:38:57 10° NE 02:42:17 15° E 02:45:38 10° ESE
CZ-2C R/B 3.2 02:38:47 10° NNE 02:43:39 55° E 02:48:36 10° S
Cosmos 1842 3.4 02:41:34 10° N 02:44:57 63° E 02:48:18 10° SSE
ALOS 3.5 02:41:23 10° NNW 02:45:11 26° WNW 02:48:57 10° WSW
GENESIS II 3.5 02:43:41 13° SW 02:46:00 57° NW 02:48:43 10° NNE
Cosmos 2360 Rocket 3.4 02:42:05 10° S 02:47:16 40° ESE 02:52:29 10° NE
Cosmos 1743 3.6 02:45:31 11° SW 02:48:08 25° WNW 02:51:00 10° NNW
Cosmos 1844 Rocket 3.6 02:43:55 10° NNW 02:49:26 53° ENE 02:54:53 10° SE
Cosmos 2221 4.3 02:47:18 10° NW 02:49:47 15° W 02:52:15 10° WSW
Alouette 2 Rocket 3.6 02:47:09 10° SSW 02:50:59 76° WNW 02:56:16 10° N
UNK 3.9 02:50:07 10° SSE 02:54:38 80° ENE 02:59:10 10° N
DELTA 2 R/B (1) 3.6 02:50:36 10° W 02:56:08 66° S 03:01:40 10° ESE
Cosmos 1140 Rocket 3.9 02:52:40 10° NNW 02:57:49 68° ENE 03:02:56 10° SSE
USA 281 3.7 02:54:02 10° NNE 03:00:33 62° ESE 03:07:02 10° S
Cosmos 2322 Rocket 2.6 02:57:16 10° S 03:02:51 65° ESE 03:08:26 10° NNE
Hubble Space Telescope 2.8 03:02:58 10° SSW 03:04:15 11° S 03:05:32 10° SSE
Nadezhda 3 Rocket 4.0 02:59:06 10° N 03:05:23 86° W 03:11:34 10° S
Cosmos 2333 Rocket 2.5 03:02:16 10° SSW 03:07:58 75° ESE 03:13:40 10° NNE
CZ-3 R/B 3.7 03:03:10 10° W 03:29:51 45° SSW 03:37:53 10° SE
